| time (UTC) | temp C | wind direction | speed KPH | gust KPH | rain 1hr cm | rain 24hr cm | rain mn cm | humidity % | barometer mb |
| 20260510000123 | 13 | 92 | 3.2 | 6.4 | 0.00 | 0.00 | 0.00 | 64 | 1025.8 |
| 20260509235552 | 13 | 92 | 3.2 | 6.4 | 0.00 | 0.00 | 0.00 | 64 | 1026.0 |
| 20260509235051 | 13 | 92 | 3.2 | 6.4 | 0.00 | 0.00 | 0.00 | 64 | 1026.0 |
| 20260509234559 | 12 | 92 | 1.6 | 4.8 | 0.00 | 0.00 | 0.00 | 65 | 1026.1 |
| 20260509234050 | 12 | 92 | 1.6 | 4.8 | 0.00 | 0.00 | 0.00 | 66 | 1026.1 |
| 20260509233551 | 12 | 92 | 1.6 | 4.8 | 0.00 | 0.00 | 0.00 | 66 | 1026.1 |
| 20260509233059 | 12 | 92 | 1.6 | 4.8 | 0.00 | 0.00 | 0.00 | 67 | 1026.1 |
| 20260509232553 | 12 | 92 | 1.6 | 4.8 | 0.00 | 0.00 | 0.00 | 67 | 1026.1 |
| 20260509232051 | 12 | 92 | 1.6 | 4.8 | 0.00 | 0.00 | 0.00 | 67 | 1026.0 |
| 20260509231553 | 11 | 92 | 1.6 | 4.8 | 0.00 | 0.00 | 0.00 | 68 | 1026.0 |
| 20260509231051 | 11 | 92 | 1.6 | 4.8 | 0.00 | 0.00 | 0.00 | 68 | 1026.0 |
| 20260509230552 | 11 | 92 | 1.6 | 4.8 | 0.00 | 0.00 | 0.00 | 68 | 1025.8 |
| 20260509230059 | 11 | 92 | 1.6 | 4.8 | 0.00 | 0.00 | 0.00 | 68 | 1025.6 |
| 20260509225552 | 11 | 92 | 1.6 | 4.8 | 0.00 | 0.00 | 0.00 | 67 | 1025.7 |
| 20260509225052 | 12 | 92 | 3.2 | 4.8 | 0.00 | 0.00 | 0.00 | 67 | 1025.7 |
| 20260509224551 | 12 | 92 | 1.6 | 4.8 | 0.00 | 0.00 | 0.00 | 67 | 1025.7 |
| 20260509224051 | 12 | 92 | 1.6 | 4.8 | 0.00 | 0.00 | 0.00 | 66 | 1025.8 |
| 20260509223553 | 12 | 92 | 1.6 | 4.8 | 0.00 | 0.00 | 0.00 | 66 | 1025.8 |
| 20260509223105 | 12 | 92 | 1.6 | 4.8 | 0.00 | 0.00 | 0.00 | 66 | 1025.7 |
| 20260509222552 | 12 | 92 | 1.6 | 4.8 | 0.00 | 0.00 | 0.00 | 65 | 1025.7 |
| 20260509222051 | 12 | 92 | 1.6 | 4.8 | 0.00 | 0.00 | 0.00 | 65 | 1025.7 |
| 20260509221607 | 12 | 92 | 1.6 | 6.4 | 0.00 | 0.00 | 0.00 | 64 | 1025.5 |
| 20260509221052 | 12 | 92 | 3.2 | 9.7 | 0.00 | 0.00 | 0.00 | 64 | 1025.5 |
| 20260509220551 | 12 | 92 | 3.2 | 9.7 | 0.00 | 0.00 | 0.00 | 64 | 1025.5 |
| 20260509220056 | 12 | 92 | 3.2 | 9.7 | 0.00 | 0.00 | 0.00 | 64 | 1025.3 |
| 20260509215551 | 12 | 92 | 3.2 | 9.7 | 0.00 | 0.00 | 0.00 | 64 | 1025.3 |
| 20260509215053 | 12 | 92 | 3.2 | 9.7 | 0.00 | 0.00 | 0.00 | 64 | 1025.3 |
| 20260509214602 | 12 | 92 | 3.2 | 6.4 | 0.00 | 0.00 | 0.00 | 64 | 1025.4 |
| 20260509214051 | 12 | 92 | 3.2 | 6.4 | 0.00 | 0.00 | 0.00 | 64 | 1025.2 |
| 20260509213551 | 12 | 92 | 1.6 | 11.3 | 0.00 | 0.00 | 0.00 | 63 | 1025.2 |
| 20260509213056 | 12 | 92 | 1.6 | 11.3 | 0.00 | 0.00 | 0.00 | 63 | 1025.2 |
| 20260509212551 | 12 | 92 | 3.2 | 9.7 | 0.00 | 0.00 | 0.00 | 63 | 1025.2 |
| 20260509212053 | 12 | 92 | 3.2 | 9.7 | 0.00 | 0.00 | 0.00 | 63 | 1025.1 |
| 20260509211554 | 12 | 92 | 3.2 | 9.7 | 0.00 | 0.00 | 0.00 | 62 | 1025.0 |
| 20260509211051 | 12 | 92 | 1.6 | 12.9 | 0.00 | 0.00 | 0.00 | 62 | 1025.1 |
| 20260509210551 | 12 | 92 | 3.2 | 12.9 | 0.00 | 0.00 | 0.00 | 61 | 1024.9 |
| 20260509205552 | 13 | 92 | 3.2 | 9.7 | 0.00 | 0.00 | 0.00 | 61 | 1025.1 |
| 20260509205048 | 13 | 92 | 3.2 | 6.4 | 0.00 | 0.00 | 0.00 | 60 | 1025.0 |
| 20260509204552 | 13 | 92 | 1.6 | 9.7 | 0.00 | 0.00 | 0.00 | 60 | 1025.0 |
| 20260509204052 | 13 | 92 | 3.2 | 9.7 | 0.00 | 0.00 | 0.00 | 60 | 1024.9 |
| 20260509203557 | 13 | 92 | 3.2 | 9.7 | 0.00 | 0.00 | 0.00 | 59 | 1024.8 |
| 20260509203055 | 13 | 92 | 3.2 | 9.7 | 0.00 | 0.00 | 0.00 | 59 | 1024.7 |
| 20260509202552 | 13 | 92 | 3.2 | 9.7 | 0.00 | 0.00 | 0.00 | 59 | 1024.5 |
| 20260509202051 | 13 | 94 | 3.2 | 9.7 | 0.00 | 0.00 | 0.00 | 59 | 1024.5 |
| 20260509201555 | 13 | 94 | 3.2 | 11.3 | 0.00 | 0.00 | 0.00 | 59 | 1024.5 |
| 20260509201052 | 13 | 94 | 4.8 | 11.3 | 0.00 | 0.00 | 0.00 | 59 | 1024.5 |
| 20260509200552 | 13 | 101 | 3.2 | 11.3 | 0.00 | 0.00 | 0.00 | 59 | 1024.5 |
| 20260509200106 | 13 | 101 | 3.2 | 11.3 | 0.00 | 0.00 | 0.00 | 59 | 1024.5 |
| 20260509195556 | 13 | 101 | 3.2 | 11.3 | 0.00 | 0.00 | 0.00 | 59 | 1024.4 |
| 20260509195052 | 13 | 101 | 3.2 | 11.3 | 0.00 | 0.00 | 0.00 | 59 | 1024.4 |
| 20260509194557 | 13 | 103 | 3.2 | 11.3 | 0.00 | 0.00 | 0.00 | 59 | 1024.4 |
| 20260509194053 | 13 | 103 | 3.2 | 11.3 | 0.00 | 0.00 | 0.00 | 59 | 1024.4 |
| 20260509193551 | 13 | 103 | 4.8 | 9.7 | 0.00 | 0.00 | 0.00 | 58 | 1024.3 |
| 20260509193103 | 13 | 103 | 3.2 | 9.7 | 0.00 | 0.00 | 0.00 | 58 | 1024.4 |
| 20260509192553 | 13 | 103 | 3.2 | 9.7 | 0.00 | 0.00 | 0.00 | 58 | 1024.4 |
| 20260509192055 | 13 | 103 | 1.6 | 9.7 | 0.00 | 0.00 | 0.00 | 57 | 1024.4 |
| 20260509191556 | 13 | 103 | 3.2 | 9.7 | 0.00 | 0.00 | 0.00 | 57 | 1024.4 |
| 20260509191052 | 13 | 103 | 3.2 | 9.7 | 0.00 | 0.00 | 0.00 | 57 | 1024.3 |
| 20260509190552 | 13 | 103 | 3.2 | 9.7 | 0.00 | 0.00 | 0.00 | 56 | 1024.2 |
| 20260509190057 | 13 | 103 | 3.2 | 9.7 | 0.00 | 0.00 | 0.00 | 56 | 1024.2 |
| 20260509185554 | 13 | 103 | 3.2 | 9.7 | 0.00 | 0.00 | 0.00 | 56 | 1024.3 |
| 20260509185057 | 13 | 103 | 1.6 | 6.4 | 0.00 | 0.00 | 0.00 | 56 | 1024.3 |
| 20260509184557 | 14 | 103 | 1.6 | 6.4 | 0.00 | 0.00 | 0.00 | 56 | 1024.3 |
| 20260509184053 | 14 | 103 | 3.2 | 6.4 | 0.00 | 0.00 | 0.00 | 56 | 1024.3 |
| 20260509183553 | 14 | 103 | 3.2 | 6.4 | 0.00 | 0.00 | 0.00 | 56 | 1024.3 |
| 20260509183104 | 14 | 103 | 3.2 | 6.4 | 0.00 | 0.00 | 0.00 | 55 | 1024.3 |
| 20260509182553 | 14 | 103 | 3.2 | 9.7 | 0.00 | 0.00 | 0.00 | 55 | 1024.3 |
| 20260509182053 | 14 | 103 | 3.2 | 11.3 | 0.00 | 0.00 | 0.00 | 56 | 1024.3 |
| 20260509181553 | 13 | 103 | 4.8 | 11.3 | 0.00 | 0.00 | 0.00 | 56 | 1024.2 |
| 20260509181053 | 13 | 104 | 3.2 | 9.7 | 0.00 | 0.00 | 0.00 | 56 | 1024.2 |
| 20260509180555 | 13 | 104 | 3.2 | 9.7 | 0.00 | 0.00 | 0.00 | 56 | 1024.3 |
| 20260509180056 | 13 | 104 | 3.2 | 9.7 | 0.00 | 0.00 | 0.00 | 56 | 1024.3 |
| 20260509175553 | 13 | 104 | 3.2 | 6.4 | 0.00 | 0.00 | 0.00 | 56 | 1024.2 |
| 20260509175058 | 13 | 104 | 3.2 | 6.4 | 0.00 | 0.00 | 0.00 | 56 | 1024.5 |
| 20260509174553 | 13 | 105 | 3.2 | 6.4 | 0.00 | 0.00 | 0.00 | 56 | 1024.5 |
| 20260509174053 | 13 | 105 | 3.2 | 9.7 | 0.00 | 0.00 | 0.00 | 56 | 1024.5 |
| 20260509173553 | 13 | 105 | 3.2 | 9.7 | 0.00 | 0.00 | 0.00 | 57 | 1024.5 |
| 20260509173107 | 13 | 105 | 1.6 | 4.8 | 0.00 | 0.00 | 0.00 | 57 | 1024.5 |
| 20260509172553 | 13 | 105 | 1.6 | 4.8 | 0.00 | 0.00 | 0.00 | 57 | 1024.5 |
| 20260509172053 | 13 | 105 | 1.6 | 4.8 | 0.00 | 0.00 | 0.00 | 56 | 1024.5 |
| 20260509171554 | 13 | 105 | 1.6 | 4.8 | 0.00 | 0.00 | 0.00 | 56 | 1024.6 |
| 20260509171053 | 13 | 105 | 1.6 | 4.8 | 0.00 | 0.00 | 0.00 | 55 | 1024.5 |
| 20260509170555 | 13 | 105 | 1.6 | 4.8 | 0.00 | 0.00 | 0.00 | 55 | 1024.6 |
| 20260509170052 | 13 | 105 | 1.6 | 6.4 | 0.00 | 0.00 | 0.00 | 54 | 1024.6 |
| 20260509165554 | 13 | 105 | 1.6 | 6.4 | 0.00 | 0.00 | 0.00 | 54 | 1024.6 |
| 20260509165053 | 13 | 105 | 1.6 | 4.8 | 0.00 | 0.00 | 0.00 | 54 | 1024.6 |
| 20260509164555 | 14 | 105 | 1.6 | 4.8 | 0.00 | 0.00 | 0.00 | 53 | 1024.5 |
| 20260509164053 | 14 | 0 | 1.6 | 6.4 | 0.00 | 0.00 | 0.00 | 53 | 1024.6 |
| 20260509163552 | 14 | 105 | 1.6 | 6.4 | 0.00 | 0.00 | 0.00 | 53 | 1024.5 |
| 20260509163101 | 14 | 105 | 3.2 | 6.4 | 0.00 | 0.00 | 0.00 | 53 | 1024.6 |
| 20260509162554 | 14 | 105 | 3.2 | 6.4 | 0.00 | 0.00 | 0.00 | 53 | 1024.7 |
| 20260509162054 | 14 | 105 | 1.6 | 6.4 | 0.00 | 0.00 | 0.00 | 53 | 1024.6 |
| 20260509161554 | 14 | 105 | 3.2 | 6.4 | 0.00 | 0.00 | 0.00 | 53 | 1024.6 |
| 20260509161052 | 14 | 105 | 3.2 | 6.4 | 0.00 | 0.00 | 0.00 | 53 | 1024.7 |
| 20260509160553 | 14 | 105 | 3.2 | 6.4 | 0.00 | 0.00 | 0.00 | 53 | 1024.8 |
| 20260509160058 | 14 | 105 | 1.6 | 6.4 | 0.00 | 0.00 | 0.00 | 54 | 1024.7 |
| 20260509155553 | 14 | 105 | 3.2 | 6.4 | 0.00 | 0.00 | 0.00 | 54 | 1024.8 |
| 20260509155053 | 14 | 105 | 1.6 | 4.8 | 0.00 | 0.00 | 0.00 | 54 | 1024.8 |
| 20260509154606 | 14 | 105 | 1.6 | 4.8 | 0.00 | 0.00 | 0.00 | 54 | 1024.9 |
| 20260509154053 | 13 | 105 | 1.6 | 4.8 | 0.00 | 0.00 | 0.00 | 54 | 1025.0 |
| 20260509153553 | 13 | 105 | 1.6 | 4.8 | 0.00 | 0.00 | 0.00 | 55 | 1025.0 |
| 20260509153059 | 13 | 105 | 1.6 | 3.2 | 0.00 | 0.00 | 0.00 | 56 | 1024.9 |
| 20260509152551 | 13 | 105 | 1.6 | 3.2 | 0.00 | 0.00 | 0.00 | 56 | 1024.9 |
| 20260509152053 | 13 | 0 | 0.0 | 3.2 | 0.00 | 0.00 | 0.00 | 57 | 1025.1 |
| 20260509151600 | 13 | 0 | 0.0 | 3.2 | 0.00 | 0.00 | 0.00 | 57 | 1025.0 |
| 20260509151052 | 13 | 0 | 0.0 | 3.2 | 0.00 | 0.00 | 0.00 | 57 | 1025.0 |
| 20260509150553 | 13 | 105 | 0.0 | 3.2 | 0.00 | 0.00 | 0.00 | 57 | 1025.1 |
| 20260509145553 | 13 | 0 | 0.0 | 1.6 | 0.00 | 0.00 | 0.00 | 56 | 1025.1 |
| 20260509145056 | 13 | 0 | 0.0 | 0.0 | 0.00 | 0.00 | 0.00 | 56 | 1025.3 |
| 20260509144610 | 14 | 0 | 0.0 | 0.0 | 0.00 | 0.00 | 0.00 | 55 | 1025.2 |
| 20260509144053 | 14 | 0 | 0.0 | 0.0 | 0.00 | 0.00 | 0.00 | 55 | 1025.3 |
| 20260509143553 | 14 | 0 | 0.0 | 0.0 | 0.00 | 0.00 | 0.00 | 54 | 1025.2 |
| 20260509143100 | 14 | 0 | 0.0 | 0.0 | 0.00 | 0.00 | 0.00 | 52 | 1025.4 |
| 20260509142553 | 14 | 0 | 0.0 | 3.2 | 0.00 | 0.00 | 0.00 | 52 | 1025.4 |
| 20260509142053 | 14 | 0 | 0.0 | 3.2 | 0.00 | 0.00 | 0.00 | 53 | 1025.4 |
| 20260509141559 | 14 | 105 | 0.0 | 3.2 | 0.00 | 0.00 | 0.00 | 52 | 1025.2 |
| 20260509141054 | 15 | 0 | 0.0 | 0.0 | 0.00 | 0.00 | 0.00 | 53 | 1025.3 |
| 20260509140552 | 15 | 0 | 0.0 | 0.0 | 0.00 | 0.00 | 0.00 | 52 | 1025.3 |
| 20260509140105 | 15 | 0 | 0.0 | 0.0 | 0.00 | 0.00 | 0.00 | 51 | 1025.3 |
| 20260509135554 | 15 | 0 | 0.0 | 0.0 | 0.00 | 0.00 | 0.00 | 51 | 1025.3 |
| 20260509135054 | 15 | 0 | 0.0 | 0.0 | 0.00 | 0.00 | 0.00 | 50 | 1025.3 |
| 20260509134556 | 15 | 0 | 0.0 | 0.0 | 0.00 | 0.00 | 0.00 | 49 | 1025.4 |
| 20260509134051 | 15 | 0 | 0.0 | 0.0 | 0.00 | 0.00 | 0.00 | 49 | 1025.2 |
| 20260509133555 | 16 | 0 | 0.0 | 3.2 | 0.00 | 0.00 | 0.00 | 48 | 1025.2 |
| 20260509133057 | 16 | 0 | 0.0 | 3.2 | 0.00 | 0.00 | 0.00 | 47 | 1025.2 |
| 20260509132554 | 16 | 105 | 1.6 | 3.2 | 0.00 | 0.00 | 0.00 | 46 | 1025.2 |
| 20260509132053 | 16 | 105 | 0.0 | 3.2 | 0.00 | 0.00 | 0.00 | 45 | 1025.2 |
| 20260509131558 | 16 | 105 | 0.0 | 3.2 | 0.00 | 0.00 | 0.00 | 45 | 1025.2 |
| 20260509131053 | 16 | 105 | 0.0 | 4.8 | 0.00 | 0.00 | 0.00 | 45 | 1025.2 |
| 20260509130553 | 16 | 0 | 1.6 | 4.8 | 0.00 | 0.00 | 0.00 | 45 | 1025.1 |
| 20260509130056 | 16 | 105 | 1.6 | 4.8 | 0.00 | 0.00 | 0.00 | 45 | 1024.9 |
| 20260509125552 | 16 | 105 | 0.0 | 4.8 | 0.00 | 0.00 | 0.00 | 44 | 1024.9 |
| 20260509125053 | 17 | 105 | 1.6 | 4.8 | 0.00 | 0.00 | 0.00 | 44 | 1024.9 |
| 20260509124557 | 17 | 105 | 1.6 | 4.8 | 0.00 | 0.00 | 0.00 | 44 | 1024.9 |
| 20260509124053 | 17 | 105 | 3.2 | 4.8 | 0.00 | 0.00 | 0.00 | 44 | 1024.9 |
| 20260509123555 | 17 | 105 | 1.6 | 3.2 | 0.00 | 0.00 | 0.00 | 43 | 1024.9 |
| 20260509123118 | 17 | 105 | 1.6 | 3.2 | 0.00 | 0.00 | 0.00 | 43 | 1024.8 |
| 20260509122553 | 17 | 105 | 0.0 | 3.2 | 0.00 | 0.00 | 0.00 | 43 | 1024.8 |
| 20260509122053 | 17 | 0 | 0.0 | 3.2 | 0.00 | 0.00 | 0.00 | 42 | 1024.9 |
| 20260509121600 | 17 | 105 | 1.6 | 3.2 | 0.00 | 0.00 | 0.00 | 42 | 1024.7 |
| 20260509121053 | 17 | 105 | 1.6 | 4.8 | 0.00 | 0.00 | 0.00 | 42 | 1024.7 |
| 20260509120552 | 17 | 105 | 1.6 | 6.4 | 0.00 | 0.00 | 0.00 | 42 | 1024.6 |
| 20260509120056 | 17 | 105 | 3.2 | 6.4 | 0.00 | 0.00 | 0.00 | 42 | 1024.6 |
| 20260509115553 | 17 | 105 | 3.2 | 9.7 | 0.00 | 0.00 | 0.00 | 41 | 1024.6 |
| 20260509115053 | 18 | 105 | 3.2 | 9.7 | 0.00 | 0.00 | 0.00 | 41 | 1024.5 |
| 20260509114600 | 18 | 105 | 4.8 | 11.3 | 0.00 | 0.00 | 0.00 | 41 | 1024.5 |
| 20260509114054 | 18 | 105 | 4.8 | 11.3 | 0.00 | 0.00 | 0.00 | 40 | 1024.5 |
| 20260509113556 | 18 | 105 | 3.2 | 9.7 | 0.00 | 0.00 | 0.00 | 40 | 1024.4 |
| 20260509113055 | 18 | 105 | 3.2 | 9.7 | 0.00 | 0.00 | 0.00 | 40 | 1024.5 |
| 20260509112552 | 18 | 105 | 4.8 | 9.7 | 0.00 | 0.00 | 0.00 | 39 | 1024.4 |
| 20260509112053 | 18 | 105 | 4.8 | 9.7 | 0.00 | 0.00 | 0.00 | 38 | 1024.5 |
| 20260509111559 | 18 | 105 | 3.2 | 9.7 | 0.00 | 0.00 | 0.00 | 38 | 1024.4 |
| 20260509111053 | 18 | 105 | 4.8 | 9.7 | 0.00 | 0.00 | 0.00 | 38 | 1024.4 |
| 20260509110553 | 18 | 106 | 3.2 | 11.3 | 0.00 | 0.00 | 0.00 | 38 | 1024.4 |
| 20260509110053 | 19 | 106 | 3.2 | 11.3 | 0.00 | 0.00 | 0.00 | 37 | 1024.5 |
| 20260509105552 | 19 | 106 | 3.2 | 11.3 | 0.00 | 0.00 | 0.00 | 37 | 1024.4 |
| 20260509105054 | 19 | 106 | 3.2 | 6.4 | 0.00 | 0.00 | 0.00 | 37 | 1024.4 |
| 20260509104555 | 19 | 106 | 3.2 | 6.4 | 0.00 | 0.00 | 0.00 | 37 | 1024.4 |
| 20260509104053 | 20 | 106 | 3.2 | 6.4 | 0.00 | 0.00 | 0.00 | 36 | 1024.4 |
| 20260509103553 | 20 | 106 | 3.2 | 11.3 | 0.00 | 0.00 | 0.00 | 36 | 1024.3 |
| 20260509103100 | 20 | 106 | 3.2 | 11.3 | 0.00 | 0.00 | 0.00 | 36 | 1024.3 |
| 20260509102553 | 20 | 106 | 3.2 | 11.3 | 0.00 | 0.00 | 0.00 | 35 | 1024.4 |
| 20260509102053 | 20 | 106 | 3.2 | 9.7 | 0.00 | 0.00 | 0.00 | 35 | 1024.4 |
| 20260509101556 | 20 | 106 | 4.8 | 9.7 | 0.00 | 0.00 | 0.00 | 35 | 1024.4 |
| 20260509101053 | 20 | 106 | 3.2 | 9.7 | 0.00 | 0.00 | 0.00 | 35 | 1024.4 |
| 20260509100553 | 20 | 106 | 3.2 | 9.7 | 0.00 | 0.00 | 0.00 | 35 | 1024.3 |
| 20260509100058 | 20 | 106 | 3.2 | 9.7 | 0.00 | 0.00 | 0.00 | 35 | 1024.3 |
| 20260509095553 | 20 | 106 | 3.2 | 9.7 | 0.00 | 0.00 | 0.00 | 35 | 1024.3 |
| 20260509095054 | 21 | 106 | 3.2 | 9.7 | 0.00 | 0.00 | 0.00 | 35 | 1024.2 |
| 20260509094554 | 21 | 106 | 3.2 | 9.7 | 0.00 | 0.00 | 0.00 | 34 | 1024.2 |
| 20260509094054 | 21 | 106 | 3.2 | 6.4 | 0.00 | 0.00 | 0.00 | 34 | 1024.1 |
| 20260509093553 | 21 | 106 | 3.2 | 6.4 | 0.00 | 0.00 | 0.00 | 34 | 1024.2 |
| 20260509093053 | 21 | 106 | 3.2 | 6.4 | 0.00 | 0.00 | 0.00 | 34 | 1024.0 |
| 20260509092557 | 21 | 106 | 3.2 | 9.7 | 0.00 | 0.00 | 0.00 | 34 | 1024.2 |
| 20260509092054 | 21 | 106 | 3.2 | 11.3 | 0.00 | 0.00 | 0.00 | 34 | 1024.1 |
| 20260509091554 | 22 | 106 | 3.2 | 11.3 | 0.00 | 0.00 | 0.00 | 33 | 1024.1 |
| 20260509091056 | 22 | 106 | 3.2 | 11.3 | 0.00 | 0.00 | 0.00 | 33 | 1024.0 |
| 20260509090553 | 22 | 105 | 4.8 | 12.9 | 0.00 | 0.00 | 0.00 | 33 | 1024.1 |
| 20260509090058 | 22 | 98 | 4.8 | 12.9 | 0.00 | 0.00 | 0.00 | 32 | 1024.0 |
| 20260509085553 | 22 | 105 | 6.4 | 12.9 | 0.00 | 0.00 | 0.00 | 32 | 1024.0 |
| 20260509085053 | 22 | 103 | 4.8 | 11.3 | 0.00 | 0.00 | 0.00 | 33 | 1024.0 |
| 20260509084553 | 22 | 103 | 4.8 | 16.1 | 0.00 | 0.00 | 0.00 | 33 | 1024.0 |
| 20260509084055 | 22 | 102 | 4.8 | 16.1 | 0.00 | 0.00 | 0.00 | 32 | 1024.0 |
| 20260509083553 | 22 | 107 | 3.2 | 12.9 | 0.00 | 0.00 | 0.00 | 32 | 1024.0 |
| 20260509083059 | 22 | 103 | 6.4 | 11.3 | 0.00 | 0.00 | 0.00 | 33 | 1023.9 |
| 20260509082552 | 22 | 101 | 4.8 | 11.3 | 0.00 | 0.00 | 0.00 | 33 | 1023.9 |
| 20260509082053 | 22 | 56 | 4.8 | 12.9 | 0.00 | 0.00 | 0.00 | 33 | 1024.0 |
| 20260509081557 | 22 | 58 | 3.2 | 12.9 | 0.00 | 0.00 | 0.00 | 33 | 1023.9 |
| 20260509081055 | 22 | 73 | 4.8 | 12.9 | 0.00 | 0.00 | 0.00 | 33 | 1023.9 |
| 20260509080554 | 22 | 26 | 4.8 | 16.1 | 0.00 | 0.00 | 0.00 | 33 | 1023.8 |
| 20260509080059 | 22 | 105 | 6.4 | 16.1 | 0.00 | 0.00 | 0.00 | 33 | 1024.0 |
| 20260509075554 | 22 | 104 | 6.4 | 14.5 | 0.00 | 0.00 | 0.00 | 34 | 1024.0 |
| 20260509075054 | 22 | 104 | 4.8 | 11.3 | 0.00 | 0.00 | 0.00 | 34 | 1023.9 |
| 20260509074605 | 22 | 60 | 3.2 | 11.3 | 0.00 | 0.00 | 0.00 | 34 | 1023.8 |
| 20260509074053 | 22 | 49 | 3.2 | 16.1 | 0.00 | 0.00 | 0.00 | 34 | 1023.9 |
| 20260509073555 | 22 | 98 | 4.8 | 16.1 | 0.00 | 0.00 | 0.00 | 35 | 1023.8 |
| 20260509073053 | 22 | 35 | 8.0 | 16.1 | 0.00 | 0.00 | 0.00 | 34 | 1023.8 |
| 20260509072556 | 22 | 115 | 6.4 | 16.1 | 0.00 | 0.00 | 0.00 | 34 | 1023.7 |
| 20260509072052 | 22 | 77 | 4.8 | 11.3 | 0.00 | 0.00 | 0.00 | 34 | 1023.8 |
| 20260509071607 | 22 | 74 | 4.8 | 12.9 | 0.00 | 0.00 | 0.00 | 34 | 1023.5 |
| 20260509071050 | 22 | 105 | 4.8 | 12.9 | 0.00 | 0.00 | 0.00 | 34 | 1023.6 |
| 20260509070554 | 22 | 32 | 6.4 | 11.3 | 0.00 | 0.00 | 0.00 | 34 | 1023.6 |
| 20260509070054 | 22 | 23 | 4.8 | 11.3 | 0.00 | 0.00 | 0.00 | 34 | 1023.5 |
| 20260509065553 | 22 | 82 | 6.4 | 27.4 | 0.00 | 0.00 | 0.00 | 34 | 1023.5 |
| 20260509065054 | 22 | 68 | 8.0 | 27.4 | 0.00 | 0.00 | 0.00 | 34 | 1023.4 |
| 20260509064558 | 22 | 89 | 8.0 | 27.4 | 0.00 | 0.00 | 0.00 | 33 | 1023.4 |
| 20260509064054 | 22 | 53 | 6.4 | 20.9 | 0.00 | 0.00 | 0.00 | 34 | 1023.4 |
| 20260509063553 | 22 | 81 | 6.4 | 20.9 | 0.00 | 0.00 | 0.00 | 34 | 1023.4 |
| 20260509063055 | 22 | 44 | 4.8 | 20.9 | 0.00 | 0.00 | 0.00 | 34 | 1023.4 |
| 20260509062554 | 22 | 122 | 6.4 | 14.5 | 0.00 | 0.00 | 0.00 | 34 | 1023.4 |
| 20260509062053 | 22 | 142 | 4.8 | 22.5 | 0.00 | 0.00 | 0.00 | 34 | 1023.4 |
| 20260509061601 | 22 | 70 | 11.3 | 22.5 | 0.00 | 0.00 | 0.00 | 34 | 1023.6 |
| 20260509061053 | 22 | 96 | 4.8 | 16.1 | 0.00 | 0.00 | 0.00 | 33 | 1023.5 |
| 20260509060553 | 22 | 78 | 6.4 | 16.1 | 0.00 | 0.00 | 0.00 | 33 | 1023.4 |
| 20260509055553 | 22 | 53 | 4.8 | 16.1 | 0.00 | 0.00 | 0.00 | 34 | 1023.4 |
| 20260509055052 | 22 | 81 | 8.0 | 16.1 | 0.00 | 0.00 | 0.00 | 35 | 1023.6 |
| 20260509054609 | 22 | 49 | 6.4 | 16.1 | 0.00 | 0.00 | 0.00 | 35 | 1023.6 |
| 20260509054052 | 22 | 56 | 6.4 | 17.7 | 0.00 | 0.00 | 0.00 | 34 | 1023.7 |
| 20260509053552 | 22 | 109 | 6.4 | 19.3 | 0.00 | 0.00 | 0.00 | 36 | 1023.7 |
| 20260509053101 | 22 | 89 | 4.8 | 19.3 | 0.00 | 0.00 | 0.00 | 37 | 1023.8 |
| 20260509052554 | 22 | 76 | 6.4 | 14.5 | 0.00 | 0.00 | 0.00 | 37 | 1023.9 |
| 20260509052056 | 22 | 57 | 8.0 | 16.1 | 0.00 | 0.00 | 0.00 | 37 | 1023.9 |
| 20260509051603 | 21 | 40 | 8.0 | 16.1 | 0.00 | 0.00 | 0.00 | 37 | 1023.9 |
| 20260509051055 | 21 | 102 | 8.0 | 16.1 | 0.00 | 0.00 | 0.00 | 38 | 1024.0 |
| 20260509050553 | 21 | 352 | 8.0 | 19.3 | 0.00 | 0.00 | 0.00 | 37 | 1024.1 |
| 20260509050055 | 21 | 121 | 8.0 | 19.3 | 0.00 | 0.00 | 0.00 | 38 | 1024.2 |
| 20260509045554 | 21 | 40 | 6.4 | 17.7 | 0.00 | 0.00 | 0.00 | 38 | 1024.3 |
| 20260509045053 | 21 | 63 | 8.0 | 17.7 | 0.00 | 0.00 | 0.00 | 39 | 1024.4 |
| 20260509044553 | 21 | 31 | 6.4 | 16.1 | 0.00 | 0.00 | 0.00 | 39 | 1024.5 |
| 20260509044053 | 21 | 78 | 8.0 | 16.1 | 0.00 | 0.00 | 0.00 | 39 | 1024.6 |
| 20260509043553 | 21 | 66 | 8.0 | 17.7 | 0.00 | 0.00 | 0.00 | 39 | 1024.7 |
| 20260509043059 | 21 | 59 | 4.8 | 17.7 | 0.00 | 0.00 | 0.00 | 40 | 1024.8 |
| 20260509042554 | 21 | 40 | 9.7 | 19.3 | 0.00 | 0.00 | 0.00 | 39 | 1024.8 |
| 20260509042052 | 21 | 67 | 8.0 | 19.3 | 0.00 | 0.00 | 0.00 | 40 | 1025.0 |
| 20260509041551 | 21 | 107 | 8.0 | 16.1 | 0.00 | 0.00 | 0.00 | 40 | 1025.1 |
| 20260509041054 | 20 | 65 | 6.4 | 16.1 | 0.00 | 0.00 | 0.00 | 40 | 1025.3 |
| 20260509040552 | 20 | 24 | 8.0 | 19.3 | 0.00 | 0.00 | 0.00 | 40 | 1025.5 |
| 20260509040054 | 20 | 72 | 9.7 | 19.3 | 0.00 | 0.00 | 0.00 | 41 | 1025.6 |
| 20260509035553 | 20 | 82 | 8.0 | 17.7 | 0.00 | 0.00 | 0.00 | 41 | 1025.8 |
| 20260509035054 | 20 | 91 | 9.7 | 17.7 | 0.00 | 0.00 | 0.00 | 41 | 1025.7 |
| 20260509034553 | 20 | 104 | 6.4 | 17.7 | 0.00 | 0.00 | 0.00 | 42 | 1025.8 |
| 20260509034053 | 20 | 99 | 9.7 | 20.9 | 0.00 | 0.00 | 0.00 | 42 | 1026.0 |
| 20260509033553 | 20 | 55 | 8.0 | 20.9 | 0.00 | 0.00 | 0.00 | 43 | 1026.0 |
| 20260509033054 | 20 | 51 | 11.3 | 20.9 | 0.00 | 0.00 | 0.00 | 43 | 1026.1 |
| 20260509032553 | 19 | 65 | 11.3 | 19.3 | 0.00 | 0.00 | 0.00 | 43 | 1026.2 |
| 20260509032055 | 19 | 20 | 11.3 | 19.3 | 0.00 | 0.00 | 0.00 | 43 | 1026.2 |
| 20260509031617 | 19 | 111 | 9.7 | 19.3 | 0.00 | 0.00 | 0.00 | 44 | 1026.3 |
| 20260509031053 | 19 | 40 | 11.3 | 19.3 | 0.00 | 0.00 | 0.00 | 43 | 1026.6 |
| 20260509030553 | 19 | 73 | 6.4 | 17.7 | 0.00 | 0.00 | 0.00 | 44 | 1026.7 |
| 20260509030054 | 19 | 345 | 9.7 | 20.9 | 0.00 | 0.00 | 0.00 | 44 | 1026.8 |
| 20260509025555 | 19 | 360 | 9.7 | 20.9 | 0.00 | 0.00 | 0.00 | 44 | 1026.8 |
| 20260509025052 | 18 | 63 | 9.7 | 20.9 | 0.00 | 0.00 | 0.00 | 45 | 1026.8 |
| 20260509024554 | 18 | 49 | 11.3 | 20.9 | 0.00 | 0.00 | 0.00 | 45 | 1027.1 |
| 20260509024054 | 18 | 360 | 9.7 | 20.9 | 0.00 | 0.00 | 0.00 | 45 | 1026.9 |
| 20260509023554 | 18 | 10 | 9.7 | 20.9 | 0.00 | 0.00 | 0.00 | 45 | 1027.0 |
| 20260509023057 | 18 | 360 | 11.3 | 20.9 | 0.00 | 0.00 | 0.00 | 46 | 1027.2 |
| 20260509022553 | 18 | 360 | 11.3 | 20.9 | 0.00 | 0.00 | 0.00 | 46 | 1027.2 |
| 20260509022052 | 18 | 360 | 8.0 | 20.9 | 0.00 | 0.00 | 0.00 | 46 | 1027.3 |
| 20260509021554 | 18 | 360 | 8.0 | 24.1 | 0.00 | 0.00 | 0.00 | 47 | 1027.3 |
| 20260509021053 | 18 | 75 | 8.0 | 24.1 | 0.00 | 0.00 | 0.00 | 48 | 1027.4 |
| 20260509020555 | 18 | 64 | 6.4 | 20.9 | 0.00 | 0.00 | 0.00 | 48 | 1027.3 |
| 20260509020054 | 18 | 34 | 9.7 | 20.9 | 0.00 | 0.00 | 0.00 | 48 | 1027.4 |
| 20260509015553 | 17 | 80 | 8.0 | 22.5 | 0.00 | 0.00 | 0.00 | 49 | 1027.2 |
| 20260509015053 | 17 | 36 | 9.7 | 22.5 | 0.00 | 0.00 | 0.00 | 49 | 1027.3 |
| 20260509014553 | 17 | 76 | 9.7 | 20.9 | 0.00 | 0.00 | 0.00 | 48 | 1027.5 |
| 20260509014052 | 17 | 38 | 9.7 | 20.9 | 0.00 | 0.00 | 0.00 | 50 | 1027.6 |
| 20260509013553 | 17 | 74 | 11.3 | 20.9 | 0.00 | 0.00 | 0.00 | 50 | 1027.7 |
| 20260509013102 | 17 | 59 | 8.0 | 16.1 | 0.00 | 0.00 | 0.00 | 51 | 1027.7 |
| 20260509012552 | 17 | 64 | 8.0 | 19.3 | 0.00 | 0.00 | 0.00 | 51 | 1027.7 |
| 20260509012052 | 16 | 97 | 11.3 | 19.3 | 0.00 | 0.00 | 0.00 | 51 | 1027.8 |
| 20260509011556 | 16 | 61 | 9.7 | 19.3 | 0.00 | 0.00 | 0.00 | 52 | 1027.8 |
| 20260509011053 | 16 | 47 | 9.7 | 19.3 | 0.00 | 0.00 | 0.00 | 52 | 1027.8 |
| 20260509010553 | 16 | 47 | 9.7 | 19.3 | 0.00 | 0.00 | 0.00 | 52 | 1027.9 |
| 20260509010055 | 16 | 15 | 9.7 | 20.9 | 0.00 | 0.00 | 0.00 | 52 | 1027.8 |
| 20260509005553 | 16 | 46 | 8.0 | 20.9 | 0.00 | 0.00 | 0.00 | 53 | 1027.8 |
| 20260509005053 | 16 | 33 | 9.7 | 20.9 | 0.00 | 0.00 | 0.00 | 53 | 1027.9 |
| 20260509004555 | 16 | 70 | 8.0 | 16.1 | 0.00 | 0.00 | 0.00 | 53 | 1028.0 |
| 20260509004055 | 16 | 33 | 8.0 | 16.1 | 0.00 | 0.00 | 0.00 | 54 | 1027.9 |
| 20260509003553 | 16 | 38 | 6.4 | 20.9 | 0.00 | 0.00 | 0.00 | 54 | 1027.8 |
| 20260509003056 | 15 | 68 | 9.7 | 20.9 | 0.00 | 0.00 | 0.00 | 54 | 1027.9 |
| 20260509002557 | 15 | 35 | 11.3 | 20.9 | 0.00 | 0.00 | 0.00 | 54 | 1027.9 |
| 20260509002053 | 15 | 352 | 6.4 | 20.9 | 0.00 | 0.00 | 0.00 | 55 | 1027.8 |
| 20260509001554 | 15 | 34 | 6.4 | 20.9 | 0.00 | 0.00 | 0.00 | 55 | 1027.8 |
| 20260509001053 | 15 | 43 | 9.7 | 20.9 | 0.00 | 0.00 | 0.00 | 56 | 1027.7 |
| 20260509000552 | 15 | 42 | 8.0 | 14.5 | 0.00 | 0.00 | 0.00 | 56 | 1027.7 |